GFSSE_con_sbcape_276.txt.gz
CAPE
0 0 0 0 1 7 12 13 15 21 28 46 69 70 96 91 68 67 45 65 62 54 65 54 47 42 34 29 28 14 11 7 15 37 62 43 11 68 74 69 93 9 0
0 0 0 0 1 3 9 13 20 22 35 76 40 79 88 81 67 80 72 65 75 48 49 62 58 46 32 38 44 37 24 11 4 9 18 2 0 0 59 43 2 48 65
0 0 0 0 0 4 8 16 23 33 86 68 69 59 61 53 74 77 40 39 51 59 79 75 64 55 33 30 25 24 36 23 10 3 11 6 0 0 3 52 65 13 2
0 0 0 0 0 4 9 12 18 26 50 49 28 47 43 18 39 34 22 36 37 28 52 47 70 67 64 56 45 46 40 41 26 9 0 0 0 0 6 10 49 88 30
0 0 0 0 0 0 4 6 16 26 27 27 24 33 26 31 23 40 26 21 24 23 32 54 59 95 74 72 55 53 41 46 48 22 0 0 0 0 2 17 9 22 48
0 0 0 0 0 0 0 2 9 23 23 29 22 29 35 25 32 24 44 31 40 21 41 36 48 59 80 81 88 68 46 51 52 0 0 0 0 0 3 14 19 20 22
0 0 0 0 0 0 0 6 9 10 14 22 21 21 25 21 18 29 26 26 38 41 59 51 36 43 58 79 75 74 70 60 28 1 0 0 0 0 2 11 19 37 29
0 0 0 0 0 0 0 3 4 11 17 19 21 23 26 23 16 17 20 25 28 57 56 60 55 60 53 51 78 85 44 40 7 0 0 0 0 0 2 5 9 16 40
0 0 0 0 0 0 0 0 2 5 9 11 14 11 13 7 5 7 18 21 27 30 38 47 66 51 53 55 50 63 41 38 0 0 0 0 0 0 0 7 9 14 18
0 0 0 0 0 0 0 0 0 2 4 3 0 1 2 0 1 10 11 18 28 30 36 34 42 55 44 55 33 30 29 16 0 0 0 0 0 20 12 10 9 11 14
0 0 0 0 0 0 0 0 0 0 0 0 0 0 0 0 0 0 9 18 23 22 31 30 32 39 49 14 6 12 23 0 0 0 0 0 1 24 37 24 19 11 4
0 0 0 0 0 0 0 0 0 0 0 0 0 0 0 0 0 0 0 7 7 9 18 25 29 32 14 0 0 1 0 0 0 0 0 0 0 15 27 37 26 10 1
0 0 0 0 0 0 0 0 0 0 0 0 0 0 0 0 0 0 0 0 0 0 0 0 1 0 0 0 0 0 0 0 0 0 0 0 0 3 26 33 29 9 0
0 0 0 0 0 0 0 0 0 0 0 0 0 0 0 0 0 0 0 0 0 0 0 0 0 0 0 2 0 0 0 0 0 0 0 0 0 7 30 33 21 14 9
0 0 0 0 0 0 0 0 0 0 0 0 0 0 0 0 0 0 0 0 0 0 0 0 0 0 5 1 1 9 5 0 0 0 0 0 1 4 26 29 24 15 11
0 0 0 0 0 0 0 0 0 0 0 0 0 0 0 0 0 0 0 0 0 0 0 0 0 0 6 2 0 0 12 12 0 0 0 0 0 0 5 18 24 13 19
0 0 0 0 0 0 0 0 0 0 0 0 0 0 0 0 0 0 0 0 0 0 0 0 0 0 0 0 1 0 0 7 3 0 0 0 0 0 0 0 0 0 0
0 0 0 0 0 0 0 0 0 0 0 0 0 0 0 0 0 0 0 0 0 0 0 0 0 8 11 0 0 0 4 6 13 0 0 0 0 0 0 0 0 0 0
0 0 0 0 0 0 0 0 0 0 0 0 0 0 0 0 0 0 0 0 0 0 0 0 5 13 5 0 0 2 2 2 11 1 0 0 0 0 0 0 0 0 3
0 0 0 0 0 0 0 0 0 0 0 0 0 0 0 0 0 0 0 0 0 0 0 2 23 2 0 0 9 5 0 0 0 0 0 0 0 0 0 0 0 0 0
0 0 0 0 0 0 0 0 0 0 0 0 0 0 0 0 0 0 0 0 1 0 2 2 0 2 0 0 7 16 0 0 0 0 0 0 0 0 0 0 0 0 0
0 0 0 0 0 0 0 0 0 0 0 0 0 0 0 0 0 0 0 9 2 8 3 0 2 5 3 6 19 8 9 0 0 0 1 0 0 0 0 0 0 0 0
0 0 0 0 0 0 0 0 0 0 0 0 0 0 0 0 0 0 0 9 16 5 1 1 1 2 5 7 10 18 13 20 2 6 1 0 0 0 0 0 0 0 0
0 0 0 0 0 0 0 0 0 0 0 0 0 0 0 0 0 0 0 0 0 8 6 2 10 4 5 7 9 32 19 11 37 17 1 1 0 0 0 0 0 0 0
0 0 0 0 0 0 0 0 0 0 0 0 0 0 0 0 0 0 0 0 0 0 0 2 10 15 8 12 17 18 9 24 5 23 20 5 0 0 0 0 0 0 0
0 0 0 0 0 0 0 0 0 0 0 0 0 0 0 0 0 0 0 0 0 0 0 0 4 5 0 22 14 29 21 11 13 10 18 7 9 0 0 0 0 0 0

GFSSE_con_sbcape_279.txt.gz
CAPE
0 0 0 0 3 4 9 9 10 18 32 62 53 69 73 48 64 69 58 57 46 63 58 48 36 22 38 51 65 64 41 11 4 9 15 28 4 2 29 74 59 64 29
0 0 0 0 0 2 5 5 9 19 61 59 56 58 62 32 54 54 47 41 32 34 42 45 50 36 23 35 48 62 64 39 10 4 9 3 0 0 16 21 78 47 95
0 0 0 0 0 0 4 4 11 21 31 26 26 40 42 23 54 25 23 39 26 46 35 39 47 40 48 30 31 47 60 65 47 16 7 0 0 0 7 16 27 66 59
0 0 0 0 0 1 4 12 18 19 23 18 25 19 24 32 41 42 49 29 32 40 37 38 41 27 58 62 31 34 45 59 67 59 17 0 0 0 1 6 30 38 67
0 0 0 0 0 0 1 4 10 20 20 21 25 21 20 39 39 27 26 18 34 20 46 45 44 41 38 40 55 48 56 48 69 21 12 0 0 0 0 8 16 26 23
0 0 0 0 0 0 1 15 15 14 16 25 22 27 29 32 22 24 30 23 27 25 31 40 41 46 41 27 43 58 47 61 68 0 0 4 0 0 0 3 12 28 42
0 0 0 0 0 0 1 12 13 20 21 19 18 25 22 23 22 24 26 21 22 25 39 54 39 32 45 35 28 40 71 47 17 0 0 0 0 1 1 2 13 19 28
0 0 0 0 0 0 0 7 8 14 20 23 21 20 22 15 14 15 20 23 33 24 21 28 34 25 24 48 42 61 54 36 11 0 0 0 0 2 13 9 8 11 20
0 0 0 0 0 0 0 4 5 12 14 10 10 10 8 4 8 11 14 14 23 27 29 25 39 37 40 40 50 40 26 31 10 0 0 0 0 0 34 18 14 13 14
0 0 0 0 0 0 0 0 0 2 1 1 0 3 1 0 0 0 1 8 17 20 20 29 32 29 32 47 26 24 23 23 0 0 0 0 0 4 37 32 17 18 28
0 0 0 0 0 0 0 0 0 0 0 0 0 0 0 0 0 0 0 6 8 10 16 17 21 24 28 11 9 11 16 0 0 0 0 0 0 11 42 47 35 29 21
0 0 0 0 0 0 0 0 0 0 0 0 0 0 0 0 0 0 0 0 0 4 2 6 10 12 4 0 2 2 1 0 0 0 0 1 6 21 36 48 44 41 28
0 0 0 0 0 0 0 0 0 0 0 0 0 0 0 0 0 0 0 0 0 0 0 0 1 2 1 2 4 6 4 2 0 0 0 6 10 16 35 45 35 34 30
0 0 0 0 0 0 0 0 0 0 0 0 0 0 0 0 0 0 0 0 0 0 0 2 5 6 6 2 1 1 1 8 4 1 0 7 15 19 31 38 43 40 44
0 0 0 0 0 0 0 0 0 0 0 0 0 0 0 0 0 0 0 0 0 0 0 1 5 7 8 9 4 2 5 9 6 3 2 7 13 26 34 51 43 36 52
0 0 0 0 0 0 0 0 0 0 0 0 0 0 0 0 0 0 0 0 0 0 0 0 3 6 14 10 5 3 4 3 3 5 3 3 9 14 32 45 40 34 45
0 0 0 0 0 0 0 0 0 0 0 0 0 0 0 0 0 0 0 0 0 0 3 2 2 9 18 7 2 3 9 6 10 8 10 7 6 3 4 17 34 37 33
0 0 0 0 0 0 0 0 0 0 0 0 0 0 0 0 0 0 0 0 0 0 1 12 16 7 25 18 3 2 8 11 19 16 18 19 9 3 0 0 1 7 12
0 0 0 0 0 0 0 0 0 0 0 0 0 0 0 0 0 0 0 0 2 3 9 20 17 24 18 8 4 6 7 5 14 12 12 11 8 4 0 0 0 0 0
0 0 0 0 0 0 0 0 0 0 0 0 0 0 0 0 0 0 0 0 4 19 6 13 11 22 22 8 9 6 16 5 2 15 6 5 10 1 0 0 0 0 0
0 0 0 0 0 0 0 0 0 0 0 0 0 0 0 0 0 0 1 7 41 28 8 2 4 6 7 20 14 11 5 6 1 24 33 7 15 0 0 0 0 0 0
0 0 0 0 0 0 0 0 0 0 0 0 0 0 0 0 0 0 0 8 9 40 23 22 15 12 6 39 16 9 7 1 14 6 19 9 19 2 0 0 0 0 0
0 0 0 0 0 0 0 0 0 0 0 0 0 0 0 0 0 0 0 3 5 5 24 50 41 29 26 8 31 37 18 43 6 14 32 0 11 0 0 0 0 0 0
0 0 0 0 0 0 0 0 0 0 0 0 0 0 0 0 0 0 0 0 1 1 4 19 44 59 49 21 43 24 21 25 39 32 21 8 2 1 0 0 0 0 0
0 0 0 0 0 0 0 0 0 0 0 0 0 0 0 0 0 0 0 0 0 1 1 5 20 49 47 28 53 64 23 10 19 42 12 10 3 7 0 0 0 3 0
0 0 0 0 0 0 0 0 0 0 0 0 0 0 0 0 0 0 0 0 0 0 0 1 0 6 39 32 40 14 56 14 8 22 15 18 8 8 7 0 0 6 11

GFSSE_con_sbcape_282.txt.gz
CAPE
0 0 0 0 3 4 4 4 7 11 30 48 41 40 53 43 46 43 30 24 39 30 32 26 26 42 49 29 33 48 53 43 37 9 4 7 0 1 15 39 47 70 76
0 0 0 0 0 0 0 2 6 12 25 29 26 51 24 24 43 47 26 38 27 44 26 27 33 38 48 70 22 28 38 49 48 42 17 6 0 0 3 16 18 45 70
0 0 0 0 0 0 0 3 10 12 17 24 27 26 25 45 36 32 44 32 47 39 41 51 33 30 26 52 62 62 32 39 40 43 39 10 0 0 0 5 13 25 57
0 0 0 0 0 0 2 6 12 19 16 15 22 30 43 36 47 26 28 21 44 32 47 41 43 22 30 25 43 61 54 83 69 10 7 5 7 0 0 1 10 29 35
0 0 0 0 0 1 6 19 16 12 15 26 32 33 42 39 30 21 23 21 22 25 39 39 43 34 26 31 30 51 69 63 71 7 0 5 16 7 2 0 1 9 28
0 0 0 0 0 0 4 17 19 22 23 28 30 26 31 20 13 19 18 25 16 21 23 35 21 23 21 20 24 33 42 59 39 4 1 0 0 18 19 9 0 3 22
0 0 0 0 0 0 3 19 18 15 18 14 17 16 18 11 11 11 18 17 21 26 25 22 25 35 37 40 34 25 49 38 25 14 10 4 0 1 17 23 18 6 12
0 0 0 0 0 0 0 9 14 18 19 13 11 9 8 5 6 7 12 12 19 20 19 17 22 26 20 23 26 54 31 18 5 6 7 6 0 0 4 32 30 23 23
0 0 0 0 0 0 0 2 3 6 6 5 3 7 2 0 0 1 2 5 16 18 16 20 17 18 19 16 27 25 15 13 6 0 0 0 0 1 14 19 36 34 30
0 0 0 0 0 0 0 0 0 0 0 0 0 0 0 0 0 0 0 2 8 11 16 13 17 17 16 17 5 8 11 7 0 0 0 0 0 11 19 18 30 38 35
0 0 0 0 0 0 0 0 0 0 0 0 0 0 0 0 0 0 0 2 4 7 8 8 13 16 10 0 0 0 1 0 0 0 0 0 2 16 34 38 37 41 41
0 0 0 0 0 0 0 0 0 0 0 0 0 0 0 0 0 0 0 0 0 0 1 2 3 4 0 0 0 0 0 0 0 0 0 0 8 21 30 37 52 42 30
0 0 0 0 0 0 0 0 0 0 0 0 0 0 0 0 0 0 0 0 0 0 0 0 0 0 0 0 0 0 0 0 0 0 0 0 7 23 33 41 44 35 28
0 0 0 0 0 0 0 0 0 0 0 0 0 0 0 0 0 0 0 0 0 1 4 3 4 4 1 0 0 0 0 0 0 0 0 0 6 20 37 42 44 49 60
0 0 0 0 0 0 0 0 0 0 0 0 0 0 0 0 0 0 0 2 6 10 11 8 8 8 5 3 1 0 0 0 1 1 1 1 7 12 28 40 38 50 48
0 0 0 0 0 0 0 0 0 0 0 0 0 0 0 0 0 0 1 6 9 11 13 15 12 10 9 6 2 0 0 0 2 4 4 2 5 12 24 38 35 56 67
0 0 0 0 0 0 0 0 0 0 0 0 0 0 0 0 0 1 7 9 10 13 10 11 13 12 12 12 7 4 3 3 5 4 9 12 8 8 17 27 38 36 59
0 0 0 0 0 0 0 0 0 0 0 0 0 0 0 0 0 8 9 12 15 8 3 1 5 13 2 9 13 7 10 11 11 8 13 16 14 15 20 25 33 34 42
0 0 0 0 0 0 0 0 0 0 0 0 0 0 0 0 4 11 12 18 19 21 11 13 5 8 15 13 18 17 12 17 16 16 18 7 9 20 32 27 29 20 25
0 0 0 0 0 0 0 0 0 0 0 0 0 0 0 0 3 9 13 13 9 14 29 34 41 33 32 14 17 13 10 15 14 21 13 22 29 20 24 34 21 5 1
0 0 0 0 0 0 0 0 0 0 0 0 0 0 0 0 2 6 9 14 5 23 36 38 38 47 34 23 47 13 7 14 22 16 12 20 0 20 42 28 19 8 2
0 0 0 0 0 0 0 0 0 0 0 0 0 0 0 0 1 2 7 10 13 16 26 42 40 63 52 25 34 31 9 2 8 14 47 18 12 21 65 28 14 14 4
0 0 0 0 0 0 0 0 0 0 0 0 0 0 0 0 0 2 5 12 16 19 17 16 44 48 61 53 61 63 42 18 15 13 16 16 10 4 70 25 24 19 0
0 0 0 0 0 0 0 0 0 0 0 0 0 0 0 0 0 1 2 7 14 18 19 18 28 51 51 47 25 55 71 36 52 23 19 54 8 2 14 58 73 76 66
0 0 0 0 0 0 0 0 0 0 0 0 0 0 0 0 0 2 5 8 16 21 17 21 15 32 44 42 52 52 12 10 36 32 16 30 0 1 7 87 128 172 119
0 0 0 0 0 0 0 0 0 0 0 0 0 0 0 0 0 3 3 17 21 18 15 14 18 19 14 31 16 34 58 23 62 22 47 54 26 5 3 32 69 51 66

GFSSE_con_sbcape_285.txt.gz
CAPE
0 0 0 2 6 5 4 4 13 24 32 28 22 31 36 35 44 25 30 24 39 26 26 41 44 49 50 53 88 47 24 28 35 38 29 17 2 0 0 12 7 32 70
0 0 0 0 1 1 1 8 10 12 26 19 36 31 23 40 48 23 24 29 29 33 19 29 36 35 37 39 56 72 74 27 17 39 30 0 3 0 0 0 6 15 68
0 0 0 0 0 0 4 10 21 31 28 26 27 37 51 47 47 19 25 21 39 25 25 22 26 32 27 48 29 40 64 81 72 40 0 3 0 0 0 0 1 16 42
0 0 0 0 0 2 4 8 9 14 24 31 36 40 45 43 28 17 20 22 25 19 26 25 29 19 14 38 24 35 45 73 77 4 0 4 6 5 5 1 3 4 19
0 0 0 0 0 1 7 17 13 27 23 17 21 22 17 20 16 17 15 20 17 22 17 17 24 22 21 27 22 24 40 38 70 6 0 0 7 1 22 12 9 5 2
0 0 0 0 0 0 3 12 12 21 19 20 14 15 22 16 14 12 19 18 17 18 22 18 22 18 19 20 15 28 15 52 25 5 4 0 0 2 6 23 18 18 8
0 0 0 0 0 0 2 8 12 15 16 14 9 8 8 8 6 7 11 11 12 17 17 14 18 23 16 16 15 19 32 28 7 0 1 1 0 1 12 14 20 18 20
0 0 0 0 0 0 3 7 10 9 7 5 5 5 4 1 0 1 3 5 15 14 14 18 17 14 18 19 19 20 15 12 0 0 0 0 0 0 4 15 18 25 31
0 0 0 0 0 0 0 0 0 1 0 0 0 1 0 0 0 0 0 3 15 17 20 17 16 18 16 13 14 9 6 6 0 0 0 0 0 0 5 11 20 27 32
0 0 0 0 0 0 0 0 0 0 0 0 0 0 0 0 0 0 0 2 9 14 20 18 22 17 18 10 0 0 1 0 0 0 0 0 0 0 10 12 16 27 34
0 0 0 0 0 0 0 0 0 0 0 0 0 0 0 0 0 0 0 0 3 6 9 8 12 13 8 0 0 0 0 0 0 0 0 0 0 7 16 17 16 20 38
0 0 0 0 0 0 0 0 0 0 0 0 0 0 0 0 0 0 0 0 0 0 1 3 4 4 1 0 0 0 0 0 0 0 0 0 1 10 24 25 22 22 27
0 0 0 0 0 0 0 0 0 0 0 0 0 0 0 0 0 0 0 0 0 0 0 0 0 0 0 0 0 0 0 0 0 0 0 0 2 10 20 36 33 29 34
0 0 0 0 0 0 0 0 0 0 0 0 0 0 0 0 0 0 0 0 0 2 4 2 2 0 0 0 0 0 0 0 0 0 0 0 2 10 20 32 46 34 39
0 0 0 0 0 0 0 0 0 0 0 0 0 0 0 0 0 0 0 1 5 5 5 2 1 2 0 0 0 0 0 0 0 1 2 0 2 6 16 26 46 41 44
0 0 0 0 0 0 0 0 0 0 0 0 0 0 0 0 0 0 0 2 4 5 8 6 7 4 2 1 0 0 0 0 1 1 2 3 5 11 16 25 37 49 41
0 0 0 0 0 0 0 0 0 0 0 0 0 0 0 0 0 0 1 2 4 7 2 5 2 2 5 2 0 1 1 0 1 0 7 6 8 10 12 26 42 52 63
0 0 0 0 0 0 0 0 0 0 0 0 0 0 0 0 0 1 4 7 9 6 4 9 9 12 6 2 6 2 2 0 0 0 6 14 7 4 12 22 44 55 62
0 0 0 0 0 0 0 0 0 0 0 0 0 0 0 0 0 1 3 6 5 13 9 12 14 18 20 14 7 8 2 2 0 1 8 9 8 29 23 15 32 56 71
0 0 0 0 0 0 0 0 0 0 0 0 0 0 0 0 0 0 1 3 3 5 2 6 22 38 31 30 2 14 9 0 11 46 20 16 16 21 5 21 33 8 57
0 0 0 0 0 0 0 0 0 0 0 0 0 0 0 0 0 0 0 1 3 5 8 20 32 30 45 32 38 20 12 0 4 0 7 16 14 2 5 14 21 22 32
0 0 0 0 0 0 0 0 0 0 0 0 0 0 0 0 0 0 0 0 1 3 3 6 12 38 45 59 61 35 14 1 0 0 7 22 28 0 0 5 32 15 35
0 0 0 0 0 0 0 0 0 0 0 0 0 0 0 0 0 1 1 1 2 3 4 9 13 39 64 40 35 56 10 25 12 4 3 20 29 0 0 1 47 25 12
0 0 0 0 0 0 0 0 0 0 0 0 0 0 0 0 0 0 3 6 6 8 5 5 8 15 39 33 22 26 20 51 39 1 2 14 42 0 0 5 5 143 61
0 0 0 0 0 0 0 0 0 0 0 0 0 0 0 0 0 0 1 5 2 11 9 8 5 6 11 12 29 15 39 40 38 32 5 10 23 0 0 4 10 50 121
0 0 0 0 0 0 0 0 0 0 0 0 0 0 0 0 0 0 0 6 9 8 5 14 9 8 7 7 16 19 29 60 51 39 25 33 52 3 0 3 3 6 2

GFSSE_con_sbcape_288.txt.gz
CAPE
0 0 0 5 5 4 6 9 9 10 25 19 29 33 63 64 43 51 28 22 27 42 46 58 59 55 26 42 44 52 50 40 19 38 37 5 0 0 0 0 1 0 37
0 0 0 0 2 6 7 18 25 24 17 29 27 43 38 60 45 16 28 23 27 23 27 14 44 60 45 29 23 26 55 47 36 41 5 0 1 7 0 0 0 2 22
0 0 0 0 1 5 9 16 25 25 59 63 37 28 42 29 21 23 22 28 17 20 29 25 19 15 16 42 26 16 38 30 27 11 2 0 0 8 19 7 0 5 9
0 0 0 0 1 2 7 12 16 37 37 53 28 19 15 22 22 26 27 27 24 21 25 21 22 27 24 46 26 36 37 43 34 20 0 0 0 0 9 32 12 17 10
0 0 0 0 0 1 8 11 13 17 20 15 23 19 19 13 11 16 22 24 20 23 21 18 16 21 25 19 14 17 16 28 17 2 0 0 0 0 4 14 18 13 14
0 0 0 0 0 0 8 9 17 12 20 16 16 18 14 10 7 7 12 11 15 16 20 17 16 20 16 16 22 29 18 38 12 0 0 0 0 0 5 12 13 9 10
0 0 0 0 0 0 5 7 12 13 11 9 8 11 10 5 2 4 4 6 13 16 15 18 18 17 18 19 15 19 22 13 0 0 0 0 0 0 2 6 12 16 15
0 0 0 0 0 0 0 0 0 1 1 3 3 1 0 0 0 0 0 4 10 14 13 17 18 19 19 20 18 15 9 9 0 0 0 0 0 0 0 9 13 15 18
0 0 0 0 0 0 0 0 0 0 0 0 0 0 0 0 0 0 0 1 11 14 17 18 14 20 17 19 11 3 3 1 0 0 0 0 0 0 2 11 13 14 18
0 0 0 0 0 0 0 0 0 0 0 0 0 0 0 0 0 0 0 1 7 10 14 17 18 18 16 8 4 3 2 0 0 0 0 0 0 0 6 12 16 18 19
0 0 0 0 0 0 0 0 0 0 0 0 0 0 0 0 0 0 0 0 3 8 13 16 19 18 8 1 1 2 0 0 0 0 0 0 0 5 14 17 21 22 25
0 0 0 0 0 0 0 0 0 0 0 0 0 0 0 0 0 0 0 0 0 3 4 12 15 11 1 0 0 0 0 0 0 0 0 0 3 9 21 27 23 24 22
0 0 0 0 0 0 0 0 0 0 0 0 0 0 0 0 0 0 0 0 0 0 0 0 0 0 0 0 0 0 0 0 0 0 0 0 0 8 18 25 33 31 24
0 0 0 0 0 0 0 0 0 0 0 0 0 0 0 0 0 0 0 0 0 0 0 0 0 0 0 0 0 0 0 0 0 0 0 0 1 6 17 23 33 37 35
0 0 0 0 0 0 0 0 0 0 0 0 0 0 0 0 0 0 0 0 0 0 0 0 0 0 0 0 0 0 0 0 0 0 0 0 3 5 13 28 40 47 45
0 0 0 0 0 0 0 0 0 0 0 0 0 0 0 0 0 0 0 0 0 0 1 0 0 0 0 0 0 0 0 0 0 0 0 0 4 9 17 23 27 40 53
0 0 0 0 0 0 0 0 0 0 0 0 0 0 0 0 0 0 0 0 0 0 2 0 0 1 1 0 0 0 0 0 0 0 0 0 0 3 3 10 25 34 48
0 0 0 0 0 0 0 0 0 0 0 0 0 0 0 0 0 0 0 0 0 0 2 2 0 2 4 0 0 0 0 0 0 0 0 0 0 0 0 3 34 40 43
0 0 0 0 0 0 0 0 0 0 0 0 0 0 0 0 0 0 0 0 0 0 0 1 3 6 12 1 0 0 0 0 0 0 0 0 0 0 0 0 2 25 39
0 0 0 0 0 0 0 0 0 0 0 0 0 0 0 0 0 0 0 0 0 0 0 0 0 0 0 0 0 0 0 0 0 0 0 0 0 2 0 0 0 0 19
0 0 0 0 0 0 0 0 0 0 0 0 0 0 0 0 0 0 0 0 0 0 0 0 0 0 0 0 0 0 0 0 0 0 0 0 0 0 0 0 0 0 0
0 0 0 0 0 0 0 0 0 0 0 0 0 0 0 0 0 0 0 0 0 0 0 0 0 0 0 0 4 0 7 0 0 0 0 0 0 0 0 0 0 0 0
0 0 0 0 0 0 0 0 0 0 0 0 0 0 0 0 0 0 0 0 0 0 0 0 0 0 3 0 2 30 38 40 12 0 0 0 0 0 0 0 0 0 1
0 0 0 0 0 0 0 0 0 0 0 0 0 0 0 0 0 0 0 0 0 0 0 0 0 0 2 0 2 5 20 11 41 15 1 0 0 0 0 2 0 9 12
0 0 0 0 0 0 0 0 0 0 0 0 0 0 0 0 0 0 0 0 0 0 0 0 0 0 0 0 0 0 1 11 0 13 16 0 0 0 0 1 0 1 1
0 0 0 0 0 0 0 0 0 0 0 0 0 0 0 0 0 0 0 0 0 0 0 0 0 0 0 0 0 0 0 16 22 21 6 1 7 0 0 0 0 1 0